This is the latest recevied weather packets stored in our database for station/object K5BOU. If no packets are shown the sender has not sent any weather packets the latest 10 day(s).
| Time | Temp. | Humidity | Pressure | Rain* | Wind** | Luminosity | Snow |
|---|---|---|---|---|---|---|---|
| 1777682573 | 15° C | 99% | 1010.6 hPa | 0 mm | - | 1 W/m² | - |
| 1777682272 | 15° C | 99% | 1010.5 hPa | 0 mm | - | 0 W/m² | - |
| 1777681969 | 15° C | 99% | 1010.1 hPa | 1.78 mm | - | 1 W/m² | - |
| 1777681664 | 15° C | 99% | 1009.7 hPa | 0 mm | - | 2 W/m² | - |
| 1777681362 | 15° C | 99% | 1009.5 hPa | 0 mm | - | 2 W/m² | - |
| 1777681059 | 15° C | 99% | 1009.4 hPa | 0 mm | - | 4 W/m² | - |
| 1777680757 | 15° C | 99% | 1009.7 hPa | 1.27 mm | - | 8 W/m² | - |
| 1777680455 | 15° C | 99% | 1009.5 hPa | 3.05 mm | - | 12 W/m² | - |
| 1777680153 | 15° C | 99% | 1009.7 hPa | 3.05 mm | - | 14 W/m² | - |
| 1777679853 | 15° C | 99% | 1009.4 hPa | 4.32 mm | - | 24 W/m² | - |
| 1777679549 | 15° C | 99% | 1009.3 hPa | 7.87 mm | - | 32 W/m² | - |
| 1777679245 | 15° C | 99% | 1009.3 hPa | 13.72 mm | - | 34 W/m² | - |
| 1777678942 | 15° C | 99% | 1009.9 hPa | 18.54 mm | - | 27 W/m² | - |
| 1777678640 | 15.56° C | 99% | 1010 hPa | 10.67 mm | - | 22 W/m² | - |
| 1777678337 | 15.56° C | 99% | 1009.5 hPa | 1.78 mm | - | 15 W/m² | - |
| 1777678033 | 15.56° C | 99% | 1009 hPa | 1.78 mm | - | 7 W/m² | - |
| 1777677731 | 15.56° C | 99% | 1008.1 hPa | 0 mm | - | 6 W/m² | - |
| 1777677428 | 15.56° C | 99% | 1007.5 hPa | 1.27 mm | - | 16 W/m² | - |
| 1777677126 | 15.56° C | 99% | 1007.4 hPa | 1.27 mm | - | 13 W/m² | - |
| 1777676824 | 15.56° C | 99% | 1007.9 hPa | 1.78 mm | - | 13 W/m² | - |
| 1777676522 | 15.56° C | 99% | 1008.7 hPa | 3.05 mm | - | 11 W/m² | - |
| 1777676220 | 15.56° C | 99% | 1008.9 hPa | 4.32 mm | - | 9 W/m² | - |
| 1777675916 | 15.56° C | 99% | 1008.8 hPa | 4.32 mm | - | 6 W/m² | - |
| 1777675612 | 15.56° C | 99% | 1008.1 hPa | 4.83 mm | - | 23 W/m² | - |
| 1777675310 | 15.56° C | 99% | 1008.2 hPa | 1.78 mm | - | 22 W/m² | - |
* Rain latest hour (hover to see other rain measurements)
** Current wind speed in m/s (hover to see current wind gust speed)